Location: Unspecified
(38.9820°N, 94.4650°W)
Time: 02:00:25
(UTC-05:00)

OTV 5 (USA 277) - Visible Passes

Search period start: 18 October 2019 00:00
Search period end: 28 October 2019 00:00
Orbit: 310 x 324 km, 54.5° (Epoch: 08 October)

Date Brightness Start Highest point End Pass type
(mag) Time Alt. Az. Time Alt. Az. Time Alt. Az.
18 Oct ? 05:39:38 11° NNE 05:39:58 12° NNE 05:41:00 10° NE visible
19 Oct ? 05:54:09 21° NNE 05:54:46 23° NE 05:57:02 10° E visible
20 Oct ? 06:08:49 44° NNW 06:09:26 62° NE 06:12:08 10° SE visible
21 Oct ? 06:23:36 35° WSW 06:23:56 36° SW 06:26:29 10° SSE visible
22 Oct ? 06:38:32 12° SW 06:38:32 12° SW 06:39:34 10° SSW visible
27 Oct ? 19:25:03 10° SSW 19:27:26 27° SE 19:27:51 26° ESE visible
